Temp
9 9 9 10 11 12 11 11 11 12 13 13 13 13 13 15 15 16 16 17 18 18 19 19 19 19 19 19 19 18 17 15 14 13 13 13 13 13 13 13 14 14 13 13
8 9 10 11 10 9 10 10 11 11 12 11 11 11 12 13 14 15 15 15 16 18 18 19 19 19 19 19 19 19 18 17 16 14 15 14 14 14 14 14 14 14 14 14
9 10 11 10 10 9 10 10 10 10 11 11 10 9 12 14 14 15 16 16 16 17 18 18 18 19 19 18 18 18 19 19 19 17 14 13 12 12 12 13 13 14 14 15
8 10 10 10 10 10 9 10 10 10 10 10 10 10 12 12 13 14 15 15 16 16 17 18 18 18 19 19 19 19 19 18 18 17 15 15 15 14 16 16 15 14 14 14
8 8 8 9 10 10 10 10 10 9 10 10 9 9 11 12 11 13 14 17 17 18 18 18 18 18 18 19 19 19 18 18 17 17 17 15 14 15 14 15 15 15 15 14
9 10 9 9 10 10 10 10 10 9 8 9 10 9 11 12 13 13 15 16 17 18 19 19 20 19 19 18 18 18 18 18 17 17 16 16 15 14 13 13 14 15 15 15
8 8 9 11 9 8 8 8 9 8 8 10 10 9 11 12 13 12 14 15 17 19 18 19 19 19 19 19 18 18 18 17 17 16 16 16 15 14 14 14 14 15 15 15
7 5 8 9 9 9 8 9 9 8 9 8 8 8 10 12 14 14 14 15 15 17 19 19 19 19 19 19 18 18 18 18 18 17 17 16 15 14 15 14 14 14 15 16
6 7 9 9 10 9 8 8 10 8 8 6 8 10 12 12 13 13 14 17 17 18 19 19 18 18 18 18 18 18 17 17 17 17 17 16 15 14 14 15 14 13 14 15
8 7 9 9 10 9 10 9 8 7 6 8 8 8 11 12 13 13 13 16 17 18 19 17 17 17 17 17 17 16 16 16 16 16 15 15 15 15 14 14 13 13 13 14
9 8 8 8 8 8 7 8 8 8 6 8 8 8 11 12 12 13 12 14 14 17 16 17 17 17 17 17 17 17 17 16 15 15 15 14 14 14 13 13 13 13 13 12
7 7 5 7 9 9 9 9 9 7 6 5 7 9 11 11 12 13 12 12 14 14 14 14 16 16 16 16 16 16 16 16 16 15 15 14 14 13 13 13 12 12 12 12
8 5 1 4 7 8 8 8 9 9 8 8 7 8 12 10 11 12 11 11 12 13 14 14 14 15 15 15 15 15 15 15 16 16 15 15 14 13 13 12 12 12 12 12
9 6 6 6 6 7 7 7 7 7 6 7 8 9 10 10 9 10 10 12 13 13 12 13 14 14 14 14 14 14 14 14 14 14 14 14 14 14 13 13 12 12 12 12
7 3 5 7 7 7 8 7 6 7 8 7 9 8 10 10 9 10 10 11 11 10 9 9 9 10 10 11 11 12 12 13 13 14 14 14 14 14 13 12 12 12 12 12
6 3 4 2 6 6 6 6 6 6 6 6 6 6 9 10 10 9 10 6 4 4 4 6 7 8 8 9 9 10 11 12 12 13 13 14 14 14 14 13 13 12 11 11
5 2 2 -1 4 5 2 4 6 7 7 7 6 8 9 6 5 3 1 1 1 1 1 3 4 4 5 7 8 9 10 10 11 12 12 13 13 13 14 14 14 13 12 11
2 3 2 -1 -1 2 5 7 7 6 7 8 8 6 0 -0 2 -0 -1 -1 -1 -1 -0 1 3 5 4 5 7 8 9 10 10 10 11 12 12 13 13 13 13 13 12 12
4 2 2 3 -3 1 4 6 8 7 5 -0 1 -0 -2 -3 3 0 1 -2 -3 -3 -1 -1 -1 1 4 4 5 7 8 8 9 9 10 11 10 11 12 12 12 13 12 12
4 4 2 -8 -4 -2 3 7 7 7 3 -3 -3 -4 -5 -4 0 0 -0 -1 -3 -5 -4 -3 -2 -1 1 3 5 5 6 6 7 7 8 9 10 10 10 10 11 12 12 12
-3 -4 -0 -8 -6 -3 2 2 5 2 3 -6 -7 -7 -7 -6 -6 -7 -7 -5 -5 -5 -4 -4 -2 -2 -2 0 3 4 4 4 4 6 7 8 9 9 10 10 11 11 11 11
-0 -2 -5 -8 -6 -1 -2 1 5 -5 -8 -8 -9 -9 -10 -10 -10 -10 -10 -10 -9 -8 -6 -5 -2 -1 -3 -4 -2 -0 1 1 2 5 6 7 8 8 9 9 9 10 10 10
1 1 -1 0 -1 -5 -7 -8 -10 -9 -9 -10 -10 -11 -11 -12 -12 -12 -12 -12 -12 -10 -7 -8 -8 -5 -4 -6 -6 -4 -4 -3 -1 2 4 6 7 7 7 8 9 8 8 9
1 0 1 0 -4 -7 -9 -10 -10 -10 -11 -12 -12 -12 -12 -13 -13 -13 -13 -14 -14 -13 -11 -9 -10 -9 -7 -7 -7 -7 -7 -7 -6 -2 1 3 5 5 6 7 7 7 6 7
-4 -3 -4 -5 -6 -9 -10 -11 -12 -12 -13 -13 -12 -13 -13 -14 -14 -15 -15 -14 -15 -14 -13 -13 -12 -12 -11 -10 -9 -8 -8 -7 -7 -6 -4 -1 1 2 3 4 4 5 5 4
-11 -8 -3 -3 -10 -9 -9 -12 -13 -13 -13 -14 -14 -14 -14 -16 -16 -16 -14 -15 -16 -16 -15 -15 -14 -13 -13 -12 -11 -9 -8 -8 -7 -6 -6 -5 -4 -2 -1 1 2 3 3 3
Height
1533 1537 1531 1532 1536 1540 1541 1542 1542 1539 1542 1543 1539 1531 1528 1525 1524 1522 1518 1515 1515 1514 1515 1513 1514 1515 1515 1517 1519 1520 1522 1524 1527 1527 1527 1531 1530 1534 1537 1539 1542 1544 1545 1548
1532 1527 1529 1532 1534 1540 1541 1543 1538 1538 1540 1542 1539 1532 1525 1523 1518 1515 1512 1508 1509 1507 1505 1505 1505 1507 1506 1507 1510 1513 1513 1516 1519 1521 1521 1522 1525 1526 1529 1532 1534 1537 1538 1541
1523 1522 1528 1530 1533 1537 1537 1537 1537 1541 1540 1538 1541 1535 1521 1512 1508 1507 1502 1503 1500 1498 1496 1495 1496 1495 1498 1498 1499 1503 1504 1505 1508 1511 1515 1517 1520 1521 1521 1521 1524 1526 1529 1532
1523 1518 1525 1527 1529 1531 1536 1532 1535 1538 1544 1542 1538 1533 1515 1512 1505 1499 1499 1497 1493 1491 1490 1488 1487 1487 1489 1489 1490 1492 1496 1497 1498 1503 1505 1505 1505 1506 1506 1510 1514 1518 1521 1523
1510 1514 1519 1524 1519 1527 1529 1529 1531 1533 1534 1536 1536 1538 1509 1506 1502 1495 1493 1489 1484 1481 1480 1477 1477 1476 1477 1482 1484 1484 1487 1488 1490 1493 1495 1498 1499 1499 1503 1505 1505 1508 1511 1514
1506 1508 1512 1513 1516 1522 1524 1526 1528 1530 1534 1530 1523 1532 1512 1504 1494 1488 1484 1480 1475 1475 1474 1470 1468 1468 1469 1472 1476 1478 1478 1478 1482 1484 1486 1488 1489 1492 1495 1495 1495 1497 1499 1503
1507 1507 1505 1507 1514 1518 1524 1530 1534 1533 1531 1518 1509 1524 1505 1491 1480 1480 1473 1472 1470 1469 1467 1464 1460 1461 1461 1464 1468 1470 1471 1471 1474 1475 1476 1478 1479 1482 1484 1486 1486 1488 1489 1491
1508 1518 1503 1500 1504 1511 1519 1522 1523 1527 1521 1521 1515 1515 1495 1481 1473 1472 1471 1465 1464 1463 1461 1459 1456 1456 1454 1458 1460 1462 1462 1462 1464 1465 1465 1467 1470 1470 1471 1474 1475 1476 1479 1481
1502 1502 1492 1492 1496 1504 1511 1517 1511 1520 1519 1530 1512 1499 1483 1474 1469 1466 1465 1464 1462 1459 1458 1454 1453 1450 1450 1453 1456 1457 1457 1457 1458 1457 1458 1458 1459 1460 1460 1462 1464 1466 1470 1472
1487 1496 1486 1487 1493 1495 1497 1503 1517 1520 1528 1513 1505 1501 1486 1469 1466 1465 1464 1466 1464 1459 1454 1450 1449 1446 1447 1449 1451 1453 1453 1452 1452 1452 1451 1451 1451 1451 1452 1455 1454 1455 1458 1461
1484 1488 1488 1486 1488 1491 1502 1503 1506 1507 1513 1504 1498 1493 1465 1465 1467 1465 1466 1467 1463 1459 1454 1451 1447 1447 1448 1450 1449 1450 1450 1447 1446 1444 1444 1444 1444 1444 1445 1444 1445 1445 1449 1452
1481 1487 1498 1489 1481 1483 1486 1489 1496 1505 1509 1511 1500 1484 1462 1461 1463 1464 1465 1466 1463 1462 1459 1456 1450 1449 1448 1450 1450 1447 1445 1442 1440 1437 1437 1436 1436 1435 1435 1434 1436 1438 1439 1441
1474 1485 1513 1502 1490 1480 1483 1484 1486 1490 1496 1495 1501 1481 1454 1461 1464 1465 1467 1463 1460 1457 1456 1456 1452 1448 1446 1446 1443 1440 1438 1437 1436 1433 1429 1427 1425 1426 1426 1427 1427 1428 1429 1431
1468 1476 1476 1477 1484 1475 1481 1481 1482 1487 1493 1479 1486 1471 1451 1463 1468 1467 1462 1458 1455 1453 1454 1451 1447 1445 1443 1442 1438 1434 1432 1431 1429 1426 1424 1421 1419 1417 1415 1417 1418 1418 1418 1419
1464 1479 1475 1475 1473 1475 1475 1475 1479 1481 1474 1486 1466 1474 1448 1462 1464 1462 1462 1459 1455 1455 1452 1450 1445 1442 1440 1435 1430 1427 1424 1423 1421 1417 1414 1412 1410 1408 1407 1407 1407 1408 1408 1408
1463 1476 1475 1487 1474 1474 1474 1471 1476 1476 1478 1478 1476 1470 1454 1456 1457 1458 1458 1458 1457 1454 1451 1445 1441 1438 1434 1431 1427 1421 1417 1414 1411 1409 1406 1405 1404 1401 1398 1397 1396 1397 1397 1399
1458 1472 1482 1500 1477 1478 1489 1469 1467 1465 1467 1468 1473 1453 1447 1458 1459 1459 1457 1456 1455 1451 1447 1442 1440 1437 1431 1427 1421 1415 1411 1406 1400 1398 1400 1398 1395 1392 1390 1388 1386 1385 1386 1388
1460 1468 1477 1497 1492 1492 1461 1456 1457 1460 1458 1459 1456 1457 1466 1467 1460 1461 1457 1454 1452 1450 1444 1439 1435 1428 1425 1421 1415 1409 1405 1398 1392 1389 1388 1387 1385 1382 1380 1378 1375 1375 1375 1374
1450 1464 1476 1478 1505 1479 1462 1455 1453 1455 1458 1469 1466 1465 1466 1464 1455 1456 1452 1454 1453 1448 1443 1438 1434 1429 1421 1415 1409 1402 1396 1392 1386 1382 1379 1376 1375 1372 1370 1367 1365 1364 1363 1362
1452 1455 1468 1513 1509 1501 1459 1448 1449 1448 1459 1471 1470 1468 1465 1462 1459 1456 1449 1445 1445 1445 1440 1432 1426 1421 1418 1414 1407 1399 1393 1386 1380 1375 1370 1367 1364 1360 1357 1356 1354 1352 1351 1349
1472 1478 1472 1507 1507 1478 1453 1448 1445 1467 1458 1471 1470 1469 1467 1467 1469 1462 1454 1445 1444 1437 1431 1427 1421 1414 1409 1403 1398 1390 1383 1378 1374 1367 1361 1356 1353 1349 1346 1344 1342 1340 1340 1339
1455 1473 1488 1498 1501 1478 1452 1449 1448 1465 1468 1469 1468 1467 1464 1461 1458 1457 1452 1444 1434 1426 1421 1419 1411 1405 1401 1397 1391 1382 1375 1370 1364 1359 1352 1346 1341 1338 1335 1333 1330 1329 1329 1328
1447 1441 1454 1456 1455 1456 1455 1457 1463 1465 1466 1467 1466 1463 1460 1455 1450 1447 1443 1441 1435 1427 1419 1414 1408 1399 1396 1391 1386 1376 1369 1363 1355 1348 1344 1338 1332 1327 1324 1321 1319 1318 1318 1317
1433 1433 1437 1444 1455 1457 1459 1461 1462 1464 1464 1464 1463 1460 1456 1451 1447 1441 1437 1433 1429 1424 1416 1409 1401 1393 1385 1382 1376 1371 1363 1357 1349 1340 1334 1329 1322 1317 1314 1311 1309 1308 1307 1306
1434 1433 1439 1451 1457 1459 1461 1460 1461 1462 1461 1460 1458 1456 1452 1447 1443 1439 1432 1427 1423 1417 1411 1406 1398 1388 1381 1375 1369 1364 1357 1350 1342 1335 1328 1321 1315 1310 1305 1302 1300 1299 1298 1299
1436 1435 1435 1440 1450 1452 1455 1456 1456 1456 1455 1454 1453 1450 1448 1445 1440 1434 1429 1425 1419 1412 1406 1400 1394 1386 1378 1371 1365 1358 1351 1344 1337 1329 1323 1317 1310 1304 1299 1294 1290 1290 1289 1289
Wind_Speed
12 4 14 14 10 13 2 3 8 6 6 14 13 18 12 21 23 26 32 35 40 40 31 28 27 32 40 39 38 35 34 39 39 41 40 41 42 40 39 38 36 33 34 32
4 14 8 4 8 9 11 11 14 9 7 6 10 17 17 19 21 26 31 33 35 40 41 41 35 34 33 43 42 41 38 36 42 43 42 42 43 43 41 40 39 36 36 35
11 5 14 7 8 8 11 15 12 8 4 10 10 15 16 15 26 31 38 39 40 42 43 43 39 36 41 40 46 46 43 40 41 43 44 43 44 45 45 45 44 42 40 38
8 17 7 11 14 11 15 7 7 9 5 6 7 6 16 9 17 20 29 33 40 42 43 45 43 39 37 43 41 41 45 44 43 44 48 48 49 50 48 46 46 45 44 43
12 10 12 12 14 7 10 7 9 9 9 8 7 5 10 3 10 15 15 22 28 36 38 44 47 46 42 42 44 46 45 49 48 47 49 51 51 51 48 46 46 47 47 46
16 7 10 11 14 11 5 1 4 2 1 10 16 10 12 10 15 12 15 28 35 35 30 31 34 38 39 39 44 43 49 53 51 50 50 52 54 52 52 51 50 48 47 47
6 12 3 3 5 6 5 5 4 5 5 5 9 7 16 16 20 12 19 27 32 32 34 29 28 40 35 33 36 42 45 49 52 52 53 53 55 56 55 54 54 51 50 49
12 5 15 6 10 7 7 10 7 8 5 4 2 7 8 17 27 30 35 40 33 40 37 28 25 17 22 26 28 35 41 41 46 52 54 55 54 56 57 57 57 57 54 52
8 8 5 8 7 10 5 7 12 12 10 3 5 6 14 14 16 16 20 22 23 25 32 26 21 16 17 23 24 26 33 38 40 50 52 55 55 56 57 56 58 59 57 56
4 2 7 8 8 13 15 6 3 3 4 11 7 7 9 9 4 7 8 8 18 26 25 14 11 11 13 16 16 17 21 28 34 40 49 54 55 55 56 56 58 59 58 56
4 3 4 9 8 11 4 11 6 3 4 3 6 6 9 9 5 6 11 24 31 22 11 11 12 11 12 12 9 12 14 17 26 34 39 47 52 52 54 57 58 58 58 56
5 3 4 6 4 6 17 18 15 8 7 4 3 11 3 11 14 21 14 27 22 28 26 29 16 15 19 16 17 17 18 25 23 20 31 39 44 50 54 57 59 57 58 57
10 4 2 7 6 3 5 6 8 5 5 16 9 12 1 10 9 22 21 24 31 34 32 34 31 28 28 29 33 33 29 27 27 26 22 27 37 45 51 55 56 55 55 57
23 4 8 10 5 5 5 5 6 8 7 18 15 25 28 15 7 13 25 30 38 41 35 38 39 32 32 33 32 34 34 31 32 30 31 30 32 38 44 47 52 56 55 55
11 7 6 1 6 2 4 6 10 14 17 9 19 14 25 13 8 18 29 35 36 30 21 20 23 24 26 30 33 33 34 36 36 38 36 33 30 30 34 42 45 48 53 54
3 3 3 1 3 5 9 11 7 6 5 9 9 18 19 23 24 19 21 12 16 24 28 29 32 31 33 37 37 35 36 34 33 37 38 35 33 32 30 32 38 44 47 52
8 6 3 4 3 1 8 7 13 12 8 8 11 22 22 11 12 16 18 22 22 26 32 37 39 41 43 43 41 40 41 40 38 36 39 37 35 33 31 30 33 38 44 46
6 6 3 3 4 3 5 3 4 10 11 8 13 9 13 11 18 8 22 30 29 31 38 42 43 46 46 45 44 44 43 42 42 41 34 35 35 37 35 35 36 37 39 43
7 5 2 4 4 5 6 7 4 6 3 7 5 10 15 22 13 9 20 34 31 35 42 43 43 45 46 47 47 47 46 43 43 40 35 31 36 41 39 38 37 37 40 42
5 4 4 3 5 8 6 2 4 3 4 10 12 12 17 19 3 3 39 44 40 39 43 45 48 50 47 45 46 48 48 45 44 41 38 34 34 35 39 39 38 37 39 39
3 2 8 3 3 7 6 8 9 3 4 8 10 11 13 6 6 24 33 42 42 45 46 46 48 49 50 47 45 47 49 47 43 41 40 38 36 36 36 37 38 36 37 39
7 7 4 3 2 8 6 0 4 3 6 7 11 12 16 20 23 21 23 30 43 46 50 49 50 50 49 47 45 47 48 48 45 42 41 38 34 37 39 41 37 34 35 39
2 6 6 9 6 5 11 17 12 8 4 7 12 16 20 25 27 28 29 27 30 44 49 47 45 48 47 45 44 46 46 46 45 43 41 39 37 33 34 37 38 37 35 38
3 1 4 5 3 9 14 12 9 8 7 10 14 19 23 26 29 30 30 31 36 39 43 42 44 45 47 44 42 41 42 42 43 43 40 37 36 35 32 33 33 35 36 37
2 3 5 5 8 15 9 7 6 7 10 13 17 18 19 24 25 26 31 37 35 38 37 36 38 42 42 40 39 38 38 39 41 40 38 35 33 33 33 31 31 31 32 33
4 3 4 3 9 2 5 7 8 10 14 15 18 20 19 18 22 26 30 32 33 35 34 35 35 36 37 35 35 34 34 35 36 37 35 34 32 32 31 30 30 28 29 29
Wind_Direction
183 180 216 210 208 243 315 221 250 257 289 262 263 279 294 282 265 260 266 268 268 264 260 252 254 256 249 253 248 243 236 233 232 232 231 232 231 231 234 236 238 239 241 239
182 225 212 154 176 208 228 235 254 275 268 336 324 297 290 281 268 259 264 268 269 267 260 253 248 250 257 248 246 242 237 236 235 235 238 237 238 236 238 239 239 239 240 240
213 227 194 209 224 214 231 235 243 242 321 294 302 293 278 268 256 263 263 266 263 262 260 258 254 245 246 246 242 241 241 241 244 239 237 236 236 238 237 237 240 239 241 242
217 235 214 210 230 208 243 200 210 221 222 263 168 286 274 277 276 275 276 263 260 261 261 261 256 250 247 248 247 242 243 240 244 242 237 236 235 236 239 239 240 239 241 242
217 172 197 217 226 170 251 188 228 232 247 256 235 255 283 219 271 268 276 279 275 271 263 262 256 253 249 247 251 247 245 244 243 243 242 241 239 242 244 244 243 241 242 243
226 187 176 201 222 202 217 185 238 200 195 239 237 209 262 259 251 263 262 269 281 276 280 274 261 258 257 253 249 252 250 245 243 243 244 244 245 243 242 242 243 244 242 242
220 233 273 196 177 186 170 155 251 234 212 256 234 202 242 266 254 259 274 269 274 277 289 284 270 256 260 261 254 252 250 247 244 243 243 247 248 247 246 246 245 245 245 242
214 225 202 190 195 174 189 195 220 242 222 269 17 207 245 229 269 265 263 272 273 274 282 281 272 276 273 271 264 257 256 254 252 247 247 249 249 247 248 248 248 248 249 252
185 237 197 184 174 150 206 198 233 256 263 287 235 261 288 269 264 256 282 289 282 282 288 292 295 291 289 280 273 269 261 259 257 253 250 248 249 248 249 250 250 249 252 254
178 206 206 202 170 208 208 149 227 200 243 250 233 224 232 251 275 311 301 345 348 345 336 312 315 317 297 281 278 282 274 271 269 265 254 251 250 251 253 253 250 249 253 252
170 125 275 137 199 187 197 224 220 206 191 255 249 244 225 252 309 320 328 331 336 321 335 358 349 6 20 11 15 357 333 292 269 267 265 258 253 253 252 252 251 252 253 251
172 129 205 230 220 187 207 214 212 223 234 239 304 270 237 288 295 314 339 336 330 343 345 341 339 343 340 345 332 325 328 321 314 284 266 263 262 256 252 250 251 251 251 252
170 211 80 340 324 244 210 195 196 212 243 248 247 260 185 280 319 319 333 329 321 320 323 326 323 322 318 318 318 317 315 313 318 305 291 274 261 256 255 253 253 253 253 250
168 171 202 216 205 173 198 183 204 205 230 248 240 262 276 277 308 318 320 309 303 310 312 307 314 321 319 315 319 321 319 316 312 308 304 295 278 264 256 255 255 253 253 254
168 193 196 190 302 112 200 227 222 217 239 235 264 258 270 288 293 293 288 290 293 316 347 355 354 348 341 332 328 325 320 315 312 305 301 299 298 286 269 259 257 257 257 255
178 165 123 35 197 259 275 257 207 228 242 254 272 269 274 283 279 282 289 19 31 356 354 349 350 347 343 337 331 324 319 311 309 305 299 298 300 297 281 270 263 260 258 256
150 125 115 242 242 91 298 223 226 239 215 228 245 258 280 357 359 26 39 32 10 357 347 344 342 338 336 334 337 332 318 311 304 301 304 300 298 293 289 286 273 264 260 257
126 111 128 189 59 239 241 71 206 213 241 260 263 315 30 358 317 91 36 14 358 348 342 340 337 333 334 334 331 324 322 321 309 305 301 300 298 294 292 289 284 274 262 256
129 122 134 162 203 307 307 267 212 188 224 27 345 360 3 350 323 205 347 350 343 334 332 330 329 328 327 327 327 325 322 323 322 311 301 292 291 295 296 290 286 278 267 259
96 116 151 103 156 210 219 194 31 208 232 26 22 4 356 356 17 322 325 331 330 327 329 328 326 325 324 322 319 318 319 321 322 320 302 290 284 280 285 287 287 282 271 263
105 41 190 183 214 284 255 321 352 108 282 36 26 360 345 341 292 299 314 320 322 324 326 327 325 323 323 321 319 315 313 318 319 318 313 298 284 281 279 279 282 281 272 266
156 153 178 86 79 276 9 319 201 65 57 17 359 345 326 313 312 312 309 313 321 324 323 325 322 319 320 321 319 313 312 313 315 313 315 312 302 282 277 278 274 274 272 267
173 180 175 180 200 65 55 104 103 70 68 357 335 325 321 316 318 321 322 324 319 320 319 322 320 315 315 318 318 313 312 313 312 310 309 312 310 300 284 274 274 275 269 263
157 173 144 129 132 127 112 99 54 23 5 337 327 324 323 319 321 321 323 323 324 325 323 321 319 318 316 319 317 316 315 315 312 311 311 311 310 307 298 282 275 274 272 267
204 101 141 81 89 113 113 57 19 356 347 336 330 328 326 322 324 323 322 327 327 328 327 325 322 321 322 322 320 320 317 317 315 314 315 312 310 309 304 294 284 278 273 269
1 150 157 182 151 152 130 349 334 355 350 346 340 336 334 330 325 327 330 332 333 331 331 329 327 326 328 329 328 325 322 321 319 316 317 317 315 312 306 299 293 282 279 273